SCP
0 0 0 0 0 0 0 0 0 0 0 0 0 0 0 0 0 0 0 0 0 0 0 0 0 0 0 0 0 0 0 0 0 0 0 0 0 0 0 0 0 1 2 2
0 0 0 0 0 0 0 0 0 0 0 0 0 0 0 0 0 0 0 0 0 0 0 0 0 0 0 0 0 0 0 0 0 0 0 0 0 0 -0 -0 0 0 0 0
0 0 0 0 0 0 0 0 0 0 0 0 0 0 0 0 0 0 0 0 0 0 0 0 0 0 0 0 0 0 0 0 0 0 0 0 0 0 0 0 0 0 0 1
0 0 0 0 0 0 0 0 0 0 0 0 0 0 0 0 0 0 0 0 0 0 0 0 0 0 0 0 0 0 0 0 0 0 0 0 0 0 0 0 0 0 0 0
0 0 0 0 0 0 0 0 0 0 0 0 0 0 0 0 0 0 0 0 0 0 0 0 0 0 0 0 0 0 0 0 0 0 0 0 0 0 0 1 1 1 0 -0
0 0 0 0 0 0 0 0 0 0 0 0 0 0 0 0 0 0 0 0 0 0 0 0 0 0 0 0 0 0 0 0 0 0 0 0 0 0 0 1 1 1 1 0
0 0 0 0 0 0 0 0 0 0 0 0 0 0 0 0 0 0 0 0 0 0 0 0 0 0 0 0 0 0 0 0 0 0 0 0 0 0 0 0 1 1 1 1
0 0 0 0 0 0 0 0 0 0 0 0 0 -0 -0 0 0 0 0 0 0 0 0 0 0 0 0 0 -0 0 0 0 0 0 0 0 0 0 0 0 0 1 1 2
0 0 0 0 0 0 0 0 0 0 0 0 -0 -0 -0 0 0 0 -0 -0 0 0 0 0 0 0 0 -0 -0 -0 -0 -0 0 0 0 0 0 0 0 0 0 1 1 1
0 0 0 0 0 0 0 0 0 0 -0 -0 -0 -0 -0 -0 -0 -0 -0 0 -0 -0 0 0 0 0 0 0 -0 -0 -0 -0 -0 -0 0 0 0 0 0 0 0 0 1 1
0 0 0 0 0 0 0 0 0 -0 -0 -0 -0 -0 -0 0 -0 -0 0 -0 0 0 0 0 0 0 0 0 0 0 -0 -0 -0 -0 -0 0 0 0 0 0 0 0 1 1
0 0 0 0 0 0 0 0 -0 -0 -0 -0 -0 -0 0 0 -0 -0 -0 0 0 0 0 0 0 0 0 0 0 0 0 0 0 0 0 0 0 0 0 0 0 0 0 0
0 0 0 0 0 0 0 0 -0 -0 -0 -0 -0 0 0 0 -0 -0 0 0 0 0 0 0 0 0 0 0 0 0 0 0 0 0 0 0 0 0 0 0 0 0 0 0
0 0 0 0 0 0 -0 -0 -0 -0 -0 -0 0 0 0 -0 0 0 0 -0 -0 0 -0 0 0 0 0 0 0 0 0 0 0 0 0 0 0 0 0 0 0 0 0 -0
0 0 0 0 0 0 -0 -0 -0 -0 -0 0 0 0 -0 -0 0 -0 -0 -0 0 -0 0 0 0 0 0 0 0 0 0 0 0 0 0 -0 -0 0 0 0 0 0 0 0
-0 -0 -0 0 0 0 -0 -0 -0 0 0 0 0 0 0 0 0 -0 -0 -0 0 0 0 0 0 0 0 0 0 0 0 -0 0 0 0 0 0 0 0 0 0 0 0 0
0 -0 -0 0 0 -0 -0 0 0 0 0 0 -0 0 -0 -0 -0 -0 -0 -0 -0 0 0 0 0 0 0 0 0 0 0 0 0 0 0 0 0 0 0 0 0 0 0 0
0 0 0 -0 -0 0 0 0 0 0 0 0 0 -0 -0 0 -0 -0 -0 -0 -0 0 0 0 0 0 0 0 0 0 0 0 0 0 0 0 -0 -0 0 -0 0 0 0 0
-0 -0 -0 -0 0 0 0 0 0 0 0 -0 0 -0 0 0 -0 -0 -0 -0 0 0 0 0 0 0 0 0 0 0 0 0 0 0 0 0 0 0 0 -0 -0 0 0 0
0 0 -0 0 0 0 0 0 0 0 0 0 0 -0 0 0 0 -0 -0 0 0 0 -0 0 0 0 0 0 0 0 0 0 0 0 0 0 0 0 -0 -0 0 0 0 0
0 0 0 0 0 0 0 0 0 0 0 0 -0 0 0 -0 -0 -0 0 0 0 -0 0 0 0 0 0 0 0 0 0 0 0 0 0 0 0 0 0 -0 -0 0 0 0
-0 -0 -0 -0 -0 -0 0 0 0 0 0 0 0 0 -0 -0 -0 -0 -0 -0 0 -0 0 0 0 0 0 0 0 0 0 0 0 0 0 0 0 0 0 0 0 0 0 0
0 -0 -0 -0 -0 -0 0 0 0 0 0 0 -0 0 0 0 0 -0 -0 -0 0 -0 0 0 0 0 0 0 0 0 0 0 0 0 0 0 0 0 0 0 0 0 0 0
-0 0 0 -0 0 -0 -0 -0 -0 0 0 0 0 0 0 0 -0 -0 0 -0 -0 -0 -0 -0 -0 -0 0 0 0 0 0 0 0 0 0 0 0 0 0 0 0 0 0 0
-0 -0 -0 0 0 -0 -0 -0 -0 -0 0 0 -0 0 0 0 0 -0 -0 -0 -0 -0 0 -0 -0 -0 0 0 0 0 0 0 0 0 0 0 0 0 0 0 0 0 0 0
0 0 0 -0 -0 -0 -0 -0 -0 -0 -0 0 0 -0 0 0 0 0 -0 -0 -0 -0 0 0 0 0 0 0 0 0 0 0 0 0 0 0 0 0 0 0 0 0 0 0
-0 0 0 -0 -0 -0 -0 -0 -0 0 -0 0 0 0 -0 -0 -0 -0 -0 -0 -0 -0 -0 -0 0 0 0 0 0 0 0 0 0 0 0 0 0 0 0 0 0 0 0 0
Wind_Speed_500mb
41 45 47 49 44 42 44 46 43 46 50 43 40 42 36 26 32 35 40 40 40 42 45 47 49 54 50 53 50 46 47 46 46 45 42 48 66 68 76 67 25 18 27 30
43 45 49 53 48 48 48 49 53 50 53 44 46 44 29 25 31 40 40 43 49 53 56 57 57 57 56 55 55 55 53 53 52 50 47 43 47 66 74 58 70 52 33 36
34 34 31 31 42 45 42 44 44 41 39 25 17 16 22 31 39 43 50 54 58 61 59 58 61 62 64 64 62 60 62 62 59 56 53 50 45 54 59 66 74 63 59 56
18 25 20 22 3 14 19 21 23 22 16 18 21 21 30 40 50 53 52 52 57 64 69 71 70 71 70 71 73 68 67 67 66 62 59 55 55 56 62 61 60 82 70 76
10 20 32 39 22 21 18 21 9 23 12 8 26 40 45 48 35 50 59 67 74 75 77 79 76 74 71 72 72 77 77 74 72 66 64 60 61 62 64 62 70 77 98 112
9 12 9 7 4 6 10 23 14 18 21 30 41 29 28 59 66 71 71 74 78 81 84 79 75 74 76 74 74 78 77 79 74 71 66 61 61 64 63 63 63 71 74 78
18 15 16 8 4 8 15 7 20 31 37 41 33 38 67 72 73 71 75 78 81 86 88 86 83 76 77 79 90 79 70 65 66 67 62 66 65 62 62 62 59 65 64 65
14 10 16 3 8 12 16 29 36 40 45 50 57 65 68 69 73 75 81 84 82 72 70 75 85 93 92 88 75 77 71 69 67 56 55 66 69 74 66 66 61 67 65 60
8 6 13 13 15 24 27 35 36 47 53 55 62 66 69 75 78 81 82 81 72 80 93 85 80 80 82 75 64 64 77 59 59 67 63 65 70 77 71 66 74 64 65 62
13 10 14 18 25 20 21 34 44 47 54 58 63 69 74 78 81 84 78 73 92 90 89 79 86 84 84 75 75 67 57 62 66 71 63 62 62 63 74 63 64 71 64 66
30 32 27 10 16 28 38 43 43 49 54 59 64 69 74 80 83 79 85 92 79 83 93 76 79 76 70 63 57 65 71 65 62 64 69 69 67 68 73 73 68 58 73 61
13 23 18 30 38 43 35 39 50 52 60 60 63 70 75 78 78 85 90 87 91 81 77 76 75 72 68 61 50 57 63 65 67 70 67 68 67 67 72 75 79 84 68 53
21 30 30 36 33 35 42 47 50 54 55 60 65 68 69 79 83 91 93 82 78 81 79 77 75 71 61 52 52 55 59 59 57 60 67 66 63 62 60 62 80 97 95 80
20 26 32 33 42 39 44 46 49 54 55 58 63 64 71 79 93 83 82 84 80 79 77 72 64 61 55 51 53 55 56 63 64 61 54 61 64 66 65 59 56 66 94 112
18 24 31 35 37 37 43 46 52 56 60 65 63 64 71 94 87 85 82 77 76 74 69 64 66 62 52 49 49 53 58 63 61 59 65 67 58 57 60 67 68 65 65 59
26 30 33 31 38 40 42 47 52 58 62 65 64 68 90 84 81 79 74 71 71 72 63 64 63 58 52 46 48 49 50 51 54 54 55 54 56 67 73 60 59 61 61 57
24 31 37 37 39 40 43 46 50 56 60 60 59 82 90 77 75 75 75 66 58 56 58 58 60 51 47 40 40 35 34 34 38 45 51 58 61 61 61 61 72 71 51 58
24 28 31 34 39 41 44 47 50 55 54 54 67 85 77 72 76 74 71 62 59 60 56 55 49 48 42 38 29 25 21 18 16 23 31 41 49 51 57 61 61 59 68 53
21 27 32 33 35 38 42 46 50 52 51 52 69 79 67 64 62 63 61 59 69 72 63 54 49 43 35 33 25 19 21 17 21 22 24 21 33 41 45 51 56 52 52 61
23 28 32 32 33 36 41 43 48 49 49 57 73 71 68 65 63 61 59 58 62 59 53 51 48 44 37 26 29 25 23 24 22 22 29 25 25 37 41 47 48 47 47 50
24 28 30 33 35 36 39 42 47 50 48 55 75 71 67 63 62 60 65 70 63 55 51 50 46 42 35 31 29 17 20 38 22 26 28 34 36 31 33 35 34 42 44 45
24 27 31 33 35 37 39 41 43 45 46 57 75 77 69 66 67 61 55 63 61 52 51 50 46 41 42 38 34 30 27 23 27 31 35 36 32 34 33 33 33 35 36 38
23 27 31 34 35 36 39 41 43 43 45 57 74 82 71 63 65 72 72 65 58 48 52 52 51 51 48 48 49 41 37 38 33 31 30 30 30 30 29 27 30 34 33 32
23 27 31 32 34 37 44 44 45 43 43 50 69 79 69 69 65 59 54 59 52 50 55 57 55 60 55 54 54 55 53 46 43 38 33 29 28 28 27 27 24 28 29 32
24 26 32 35 39 41 43 42 44 49 44 48 62 78 76 66 67 63 63 62 57 62 61 60 59 60 61 59 58 56 58 59 51 45 41 38 35 34 33 29 29 24 27 31
24 28 30 34 36 40 42 45 46 52 50 50 53 61 83 73 72 70 65 67 68 66 67 64 62 60 62 61 57 56 55 55 55 54 50 50 49 47 46 42 38 31 28 30
26 27 27 32 36 37 43 46 49 50 55 49 50 57 66 83 79 80 77 75 71 69 72 68 64 62 59 59 58 56 55 53 51 51 49 48 48 44 44 40 40 34 32 34
Wind_Direction_500mb
271 275 278 283 272 258 254 257 260 273 275 281 277 278 290 302 303 286 278 277 279 281 289 288 283 282 279 282 284 285 288 287 283 282 287 283 254 268 283 295 326 277 230 219
277 273 265 266 264 262 261 260 264 272 271 270 277 279 292 313 300 298 289 292 297 295 290 289 286 282 279 279 281 282 282 285 284 279 274 275 261 256 264 269 271 272 253 240
270 276 273 259 253 257 258 259 262 266 274 303 293 314 331 292 283 300 297 293 292 288 288 288 284 280 279 279 276 275 275 279 281 278 271 264 262 258 254 250 251 251 262 244
276 288 252 269 212 281 282 291 278 283 288 288 326 308 297 307 300 290 290 297 298 296 293 287 286 285 281 280 278 278 280 273 275 271 269 263 253 249 248 242 233 235 243 239
259 259 274 282 295 224 275 291 292 285 327 311 308 313 289 281 320 318 307 301 296 295 294 293 290 287 281 280 275 274 269 270 268 271 269 261 257 249 246 243 232 230 241 246
225 247 254 68 254 2 307 270 39 6 337 319 311 297 298 324 314 307 302 299 297 295 293 292 290 290 289 284 276 274 267 267 264 261 265 265 256 256 248 246 242 231 234 237
233 261 269 350 244 287 250 8 333 320 318 317 307 301 307 307 304 302 300 299 298 297 294 293 292 290 288 286 280 267 266 266 256 254 262 260 261 256 251 247 245 237 232 235
211 241 246 27 234 244 348 317 316 319 319 308 307 306 304 303 302 304 304 303 302 304 301 297 294 291 286 280 276 280 265 257 253 248 247 257 253 258 259 245 251 242 235 228
254 278 322 301 295 296 299 306 331 313 314 314 307 304 306 306 306 304 304 308 307 306 302 298 295 292 286 286 280 280 266 262 263 254 253 250 242 245 250 248 244 243 233 227
280 275 279 278 253 299 355 319 313 320 312 308 306 308 307 306 305 309 311 309 308 305 299 296 298 292 287 281 280 275 256 261 269 256 248 244 238 241 241 241 240 238 228 225
283 271 315 262 0 329 319 320 320 311 308 308 308 307 305 308 311 312 310 311 307 302 302 299 300 294 294 287 284 272 269 264 256 252 256 244 243 243 239 236 231 232 225 226
300 329 321 310 322 326 332 321 313 312 314 311 310 309 313 312 312 313 313 308 310 305 303 300 300 297 294 282 276 268 261 260 253 255 245 246 249 246 241 233 236 227 228 224
296 316 309 306 319 323 317 313 319 314 311 308 312 315 315 315 313 312 312 311 309 307 306 304 302 299 290 278 270 267 261 257 252 247 250 244 242 238 235 236 233 235 227 234
310 311 315 323 319 313 307 321 317 314 312 318 318 316 316 316 317 316 315 316 316 313 313 313 309 297 292 283 268 259 257 255 250 248 241 238 242 237 233 228 225 230 234 235
326 320 312 306 303 310 325 322 320 320 324 322 323 322 321 323 321 320 323 324 322 319 319 320 318 315 312 298 283 276 264 257 256 254 249 242 236 232 233 234 235 232 235 233
324 323 304 315 329 327 328 325 323 325 326 324 325 323 328 328 324 328 332 333 326 324 330 326 321 323 315 302 285 277 270 264 257 252 252 248 239 234 230 224 221 227 231 232
326 321 334 331 330 330 328 328 326 326 326 327 328 329 333 334 334 332 337 339 336 338 339 338 338 338 337 325 312 305 292 280 263 256 247 241 236 226 225 222 225 219 212 225
320 332 331 331 332 331 332 330 330 330 333 333 329 333 339 343 338 341 342 343 350 350 357 353 355 3 13 4 347 347 341 325 298 266 250 240 235 224 217 215 217 214 219 198
334 335 338 337 334 334 335 334 335 336 339 339 336 341 345 348 346 347 349 356 356 355 0 5 16 22 26 31 18 48 21 18 21 3 336 268 224 207 199 201 207 207 203 206
336 339 341 342 342 344 341 341 339 343 346 340 343 351 352 356 358 357 0 4 4 358 359 10 21 28 35 44 59 64 42 46 43 51 48 76 151 181 179 183 189 196 196 198
346 345 350 350 350 349 349 348 348 349 351 347 359 357 357 1 6 8 7 4 11 13 20 27 34 39 48 53 67 71 62 76 74 70 72 79 101 129 150 161 170 181 188 196
355 358 357 356 356 355 355 356 353 353 354 352 4 4 6 9 11 19 23 13 16 19 32 36 45 50 58 61 63 66 78 82 87 90 89 91 97 112 125 142 153 167 176 182
8 8 6 4 4 2 2 3 1 1 0 356 8 9 10 17 17 14 17 28 28 29 45 52 59 61 59 60 59 64 68 79 85 94 99 104 114 124 133 143 139 164 169 166
21 18 17 13 10 11 11 9 7 9 8 3 8 15 15 20 28 29 33 38 41 45 52 61 63 64 63 67 62 58 66 73 77 85 93 106 114 121 122 133 144 150 156 161
34 27 25 25 21 17 14 13 13 14 14 13 11 15 22 30 30 29 37 44 47 53 55 61 67 68 65 65 67 66 66 69 71 72 82 81 85 96 107 121 128 134 142 158
46 35 31 28 27 22 20 19 21 17 20 17 17 14 19 30 40 40 42 48 49 53 55 56 60 65 68 67 65 65 65 66 64 66 69 71 74 83 91 99 101 101 106 122
44 46 37 32 29 26 24 23 25 21 21 24 24 23 18 22 37 44 45 47 49 53 56 56 58 59 62 67 66 64 61 60 63 65 65 71 78 78 82 93 100 105 105 106
Wind_Speed_850mb
41 45 47 49 44 42 44 46 43 46 50 43 40 42 36 26 32 35 40 40 40 42 45 47 49 54 50 53 50 46 47 46 46 45 42 48 66 68 76 67 25 18 27 30
43 45 49 53 48 48 48 49 53 50 53 44 46 44 29 25 31 40 40 43 49 53 56 57 57 57 56 55 55 55 53 53 52 50 47 43 47 66 74 58 70 52 33 36
34 34 31 31 42 45 42 44 44 41 39 25 17 16 22 31 39 43 50 54 58 61 59 58 61 62 64 64 62 60 62 62 59 56 53 50 45 54 59 66 74 63 59 56
18 25 20 22 3 14 19 21 23 22 16 18 21 21 30 40 50 53 52 52 57 64 69 71 70 71 70 71 73 68 67 67 66 62 59 55 55 56 62 61 60 82 70 76
10 20 32 39 22 21 18 21 9 23 12 8 26 40 45 48 35 50 59 67 74 75 77 79 76 74 71 72 72 77 77 74 72 66 64 60 61 62 64 62 70 77 98 112
9 12 9 7 4 6 10 23 14 18 21 30 41 29 28 59 66 71 71 74 78 81 84 79 75 74 76 74 74 78 77 79 74 71 66 61 61 64 63 63 63 71 74 78
18 15 16 8 4 8 15 7 20 31 37 41 33 38 67 72 73 71 75 78 81 86 88 86 83 76 77 79 90 79 70 65 66 67 62 66 65 62 62 62 59 65 64 65
14 10 16 3 8 12 16 29 36 40 45 50 57 65 68 69 73 75 81 84 82 72 70 75 85 93 92 88 75 77 71 69 67 56 55 66 69 74 66 66 61 67 65 60
8 6 13 13 15 24 27 35 36 47 53 55 62 66 69 75 78 81 82 81 72 80 93 85 80 80 82 75 64 64 77 59 59 67 63 65 70 77 71 66 74 64 65 62
13 10 14 18 25 20 21 34 44 47 54 58 63 69 74 78 81 84 78 73 92 90 89 79 86 84 84 75 75 67 57 62 66 71 63 62 62 63 74 63 64 71 64 66
30 32 27 10 16 28 38 43 43 49 54 59 64 69 74 80 83 79 85 92 79 83 93 76 79 76 70 63 57 65 71 65 62 64 69 69 67 68 73 73 68 58 73 61
13 23 18 30 38 43 35 39 50 52 60 60 63 70 75 78 78 85 90 87 91 81 77 76 75 72 68 61 50 57 63 65 67 70 67 68 67 67 72 75 79 84 68 53
21 30 30 36 33 35 42 47 50 54 55 60 65 68 69 79 83 91 93 82 78 81 79 77 75 71 61 52 52 55 59 59 57 60 67 66 63 62 60 62 80 97 95 80
20 26 32 33 42 39 44 46 49 54 55 58 63 64 71 79 93 83 82 84 80 79 77 72 64 61 55 51 53 55 56 63 64 61 54 61 64 66 65 59 56 66 94 112
18 24 31 35 37 37 43 46 52 56 60 65 63 64 71 94 87 85 82 77 76 74 69 64 66 62 52 49 49 53 58 63 61 59 65 67 58 57 60 67 68 65 65 59
26 30 33 31 38 40 42 47 52 58 62 65 64 68 90 84 81 79 74 71 71 72 63 64 63 58 52 46 48 49 50 51 54 54 55 54 56 67 73 60 59 61 61 57
24 31 37 37 39 40 43 46 50 56 60 60 59 82 90 77 75 75 75 66 58 56 58 58 60 51 47 40 40 35 34 34 38 45 51 58 61 61 61 61 72 71 51 58
24 28 31 34 39 41 44 47 50 55 54 54 67 85 77 72 76 74 71 62 59 60 56 55 49 48 42 38 29 25 21 18 16 23 31 41 49 51 57 61 61 59 68 53
21 27 32 33 35 38 42 46 50 52 51 52 69 79 67 64 62 63 61 59 69 72 63 54 49 43 35 33 25 19 21 17 21 22 24 21 33 41 45 51 56 52 52 61
23 28 32 32 33 36 41 43 48 49 49 57 73 71 68 65 63 61 59 58 62 59 53 51 48 44 37 26 29 25 23 24 22 22 29 25 25 37 41 47 48 47 47 50
24 28 30 33 35 36 39 42 47 50 48 55 75 71 67 63 62 60 65 70 63 55 51 50 46 42 35 31 29 17 20 38 22 26 28 34 36 31 33 35 34 42 44 45
24 27 31 33 35 37 39 41 43 45 46 57 75 77 69 66 67 61 55 63 61 52 51 50 46 41 42 38 34 30 27 23 27 31 35 36 32 34 33 33 33 35 36 38
23 27 31 34 35 36 39 41 43 43 45 57 74 82 71 63 65 72 72 65 58 48 52 52 51 51 48 48 49 41 37 38 33 31 30 30 30 30 29 27 30 34 33 32
23 27 31 32 34 37 44 44 45 43 43 50 69 79 69 69 65 59 54 59 52 50 55 57 55 60 55 54 54 55 53 46 43 38 33 29 28 28 27 27 24 28 29 32
24 26 32 35 39 41 43 42 44 49 44 48 62 78 76 66 67 63 63 62 57 62 61 60 59 60 61 59 58 56 58 59 51 45 41 38 35 34 33 29 29 24 27 31
24 28 30 34 36 40 42 45 46 52 50 50 53 61 83 73 72 70 65 67 68 66 67 64 62 60 62 61 57 56 55 55 55 54 50 50 49 47 46 42 38 31 28 30
26 27 27 32 36 37 43 46 49 50 55 49 50 57 66 83 79 80 77 75 71 69 72 68 64 62 59 59 58 56 55 53 51 51 49 48 48 44 44 40 40 34 32 34
Wind_Direction_850mb
271 275 278 283 272 258 254 257 260 273 275 281 277 278 290 302 303 286 278 277 279 281 289 288 283 282 279 282 284 285 288 287 283 282 287 283 254 268 283 295 326 277 230 219
277 273 265 266 264 262 261 260 264 272 271 270 277 279 292 313 300 298 289 292 297 295 290 289 286 282 279 279 281 282 282 285 284 279 274 275 261 256 264 269 271 272 253 240
270 276 273 259 253 257 258 259 262 266 274 303 293 314 331 292 283 300 297 293 292 288 288 288 284 280 279 279 276 275 275 279 281 278 271 264 262 258 254 250 251 251 262 244
276 288 252 269 212 281 282 291 278 283 288 288 326 308 297 307 300 290 290 297 298 296 293 287 286 285 281 280 278 278 280 273 275 271 269 263 253 249 248 242 233 235 243 239
259 259 274 282 295 224 275 291 292 285 327 311 308 313 289 281 320 318 307 301 296 295 294 293 290 287 281 280 275 274 269 270 268 271 269 261 257 249 246 243 232 230 241 246
225 247 254 68 254 2 307 270 39 6 337 319 311 297 298 324 314 307 302 299 297 295 293 292 290 290 289 284 276 274 267 267 264 261 265 265 256 256 248 246 242 231 234 237
233 261 269 350 244 287 250 8 333 320 318 317 307 301 307 307 304 302 300 299 298 297 294 293 292 290 288 286 280 267 266 266 256 254 262 260 261 256 251 247 245 237 232 235
211 241 246 27 234 244 348 317 316 319 319 308 307 306 304 303 302 304 304 303 302 304 301 297 294 291 286 280 276 280 265 257 253 248 247 257 253 258 259 245 251 242 235 228
254 278 322 301 295 296 299 306 331 313 314 314 307 304 306 306 306 304 304 308 307 306 302 298 295 292 286 286 280 280 266 262 263 254 253 250 242 245 250 248 244 243 233 227
280 275 279 278 253 299 355 319 313 320 312 308 306 308 307 306 305 309 311 309 308 305 299 296 298 292 287 281 280 275 256 261 269 256 248 244 238 241 241 241 240 238 228 225
283 271 315 262 0 329 319 320 320 311 308 308 308 307 305 308 311 312 310 311 307 302 302 299 300 294 294 287 284 272 269 264 256 252 256 244 243 243 239 236 231 232 225 226
300 329 321 310 322 326 332 321 313 312 314 311 310 309 313 312 312 313 313 308 310 305 303 300 300 297 294 282 276 268 261 260 253 255 245 246 249 246 241 233 236 227 228 224
296 316 309 306 319 323 317 313 319 314 311 308 312 315 315 315 313 312 312 311 309 307 306 304 302 299 290 278 270 267 261 257 252 247 250 244 242 238 235 236 233 235 227 234
310 311 315 323 319 313 307 321 317 314 312 318 318 316 316 316 317 316 315 316 316 313 313 313 309 297 292 283 268 259 257 255 250 248 241 238 242 237 233 228 225 230 234 235
326 320 312 306 303 310 325 322 320 320 324 322 323 322 321 323 321 320 323 324 322 319 319 320 318 315 312 298 283 276 264 257 256 254 249 242 236 232 233 234 235 232 235 233
324 323 304 315 329 327 328 325 323 325 326 324 325 323 328 328 324 328 332 333 326 324 330 326 321 323 315 302 285 277 270 264 257 252 252 248 239 234 230 224 221 227 231 232
326 321 334 331 330 330 328 328 326 326 326 327 328 329 333 334 334 332 337 339 336 338 339 338 338 338 337 325 312 305 292 280 263 256 247 241 236 226 225 222 225 219 212 225
320 332 331 331 332 331 332 330 330 330 333 333 329 333 339 343 338 341 342 343 350 350 357 353 355 3 13 4 347 347 341 325 298 266 250 240 235 224 217 215 217 214 219 198
334 335 338 337 334 334 335 334 335 336 339 339 336 341 345 348 346 347 349 356 356 355 0 5 16 22 26 31 18 48 21 18 21 3 336 268 224 207 199 201 207 207 203 206
336 339 341 342 342 344 341 341 339 343 346 340 343 351 352 356 358 357 0 4 4 358 359 10 21 28 35 44 59 64 42 46 43 51 48 76 151 181 179 183 189 196 196 198
346 345 350 350 350 349 349 348 348 349 351 347 359 357 357 1 6 8 7 4 11 13 20 27 34 39 48 53 67 71 62 76 74 70 72 79 101 129 150 161 170 181 188 196
355 358 357 356 356 355 355 356 353 353 354 352 4 4 6 9 11 19 23 13 16 19 32 36 45 50 58 61 63 66 78 82 87 90 89 91 97 112 125 142 153 167 176 182
8 8 6 4 4 2 2 3 1 1 0 356 8 9 10 17 17 14 17 28 28 29 45 52 59 61 59 60 59 64 68 79 85 94 99 104 114 124 133 143 139 164 169 166
21 18 17 13 10 11 11 9 7 9 8 3 8 15 15 20 28 29 33 38 41 45 52 61 63 64 63 67 62 58 66 73 77 85 93 106 114 121 122 133 144 150 156 161
34 27 25 25 21 17 14 13 13 14 14 13 11 15 22 30 30 29 37 44 47 53 55 61 67 68 65 65 67 66 66 69 71 72 82 81 85 96 107 121 128 134 142 158
46 35 31 28 27 22 20 19 21 17 20 17 17 14 19 30 40 40 42 48 49 53 55 56 60 65 68 67 65 65 65 66 64 66 69 71 74 83 91 99 101 101 106 122
44 46 37 32 29 26 24 23 25 21 21 24 24 23 18 22 37 44 45 47 49 53 56 56 58 59 62 67 66 64 61 60 63 65 65 71 78 78 82 93 100 105 105 106